Regional Weather Roundup
Issued by NWS

Home | Current Version | Previous Version | Graphics & Text | Print | Product List | Glossary On
Versions: 1 2 3 4 5 6 7 8 9 10 11 12 13 14 15 16 17 18 19 20 21 22 23 24 25 26 27 28 29 30 31 32 33 34 35 36 37 38 39 40 41 42 43 44 45 46 47 48 49 50
000
ASUS43 KMKX 300600
RWRWI

WISCONSIN REGIONAL WEATHER ROUNDUP
NATIONAL WEATHER SERVICE MILWAUKEE/SULLIVAN WI
100 AM CDT WED JUL 30 2014

NOTE: "FAIR" INDICATES FEW OR NO CLOUDS BELOW 12,000 FEET WITH NO
SIGNIFICANT WEATHER AND/OR OBSTRUCTIONS TO VISIBILITY.

WIZ001-002-006>008-014>016-023>028-300700-
NORTHWEST WISCONSIN

CITY           SKY/WX    TMP DP  RH WIND       PRES   REMARKS
SUPERIOR ARPT  CLEAR     55  55 100 SW5       30.05R FOG
ASHLAND        FOG       48  47  96 CALM      30.06R VSB 1/4
6HR MIN TEMP:  48; 6HR MAX TEMP:  63; 6HR PCP:  0.18;

HAYWARD        PTCLDY    54  54 100 CALM      30.06S FOG
6HR MIN TEMP:  53; 6HR MAX TEMP:  61; 6HR PCP:  0.06;

SIREN          FOG       57  56  97 CALM      30.06F VSB 3/4
RICE LAKE      MOCLDY    57  55  94 CALM      30.06S
6HR MIN TEMP:  57; 6HR MAX TEMP:  72; 6HR PCP:  0.09;

LADYSMITH      PTCLDY    58  56  94 NW5       30.06R
6HR MIN TEMP:  58; 6HR MAX TEMP:  60; 6HR PCP:  0.08;

EAU CLAIRE     NOT AVBL
MENOMONIE      MOCLDY    60  58  92 SW6       30.05F
6HR MIN TEMP:  59; 6HR MAX TEMP:  73; 6HR PCP:  0.01;

NEW RICHMOND   MOCLDY    61  56  82 SW3       30.07S
OSCEOLA        PTCLDY    61  58  92 SW6       30.09R
$$

WIZ003>005-009-010-017-018-300700-
NORTH CENTRAL WISCONSIN

CITY           SKY/WX    TMP DP  RH WIND       PRES   REMARKS
WOODRUFF       PTCLDY    55  51  88 CALM      30.05R
RHINELANDER    MOCLDY    53  53 100 CALM      30.05R
6HR MIN TEMP:  53; 6HR MAX TEMP:  63;

EAGLE RIVER    CLEAR     52  51  97 E3        30.04S
LAND O LAKES   CLEAR     47  47  98 CALM      30.06R FOG
PHILLIPS         N/A     52  52 100 CALM      30.04S FOG
6HR MIN TEMP:  52; 6HR MAX TEMP:  58; 6HR PCP:  0.01;

TOMAHAWK       FOG       47  46  97 CALM      30.05R VSB 1/4
6HR MIN TEMP:  47; 6HR MAX TEMP:  60;

MEDFORD        PTCLDY    52  51  98 N3        30.04R FOG
MERRILL        FOG       52  52 100 CALM      30.04R VSB 1
$$

WIZ029-030-035-036-043>047-300700-
CENTRAL WISCONSIN

CITY           SKY/WX    TMP DP  RH WIND       PRES   REMARKS
WAUSAU         CLEAR     57  55  93 N5        30.01S
6HR MIN TEMP:  57; 6HR MAX TEMP:  62; 6HR PCP: TRACE;

MOSINEE        CLOUDY    55  54  94 NW6       30.03S
MARSHFIELD     MOCLDY    58  55  90 CALM      30.02S
6HR MIN TEMP:  57; 6HR MAX TEMP:  66; 6HR PCP:  0.03;

STEVENS POINT  PTCLDY    57  53  86 CALM      30.03R
WAUPACA        PTCLDY    60  56  85 CALM      30.01S
6HR MIN TEMP:  60; 6HR MAX TEMP:  64; 6HR PCP:  0.11;

WAUTOMA        NOT AVBL
WISC RAPIDS    PTCLDY    57  55  93 W3        30.04S
6HR MIN TEMP:  57; 6HR MAX TEMP:  65; 6HR PCP: TRACE;

CAMP DOUGLAS   FOG       55  55 100 CALM      30.03S VSB 3/4
$$

WIZ011>013-019>022-031-037>040-048>050-300700-
NORTHEAST WISCONSIN

CITY           SKY/WX    TMP DP  RH WIND       PRES   REMARKS
ANTIGO         MOCLDY    53  53  99 N5        30.03S
STURGEON BAY   MOCLDY    61  55  82 E5        30.00R
6HR MIN TEMP:  57; 6HR MAX TEMP:  66;

GREEN BAY      CLEAR     58  56  93 CALM      29.99R
6HR MIN TEMP:  58; 6HR MAX TEMP:  62;

MANITOWOC      NOT AVBL
APPLETON       PTCLDY    55  54  94 W8        30.00S
CLINTONVILLE   CLEAR     57  54  88 NW3       30.00R
OSHKOSH        PTCLDY    59  57  93 W5        29.99F
6HR MIN TEMP:  59; 6HR MAX TEMP:  62; 6HR PCP:  0.08;

$$

WIZ032>034-041-042-053>061-300700-
SOUTHWEST WISCONSIN

CITY           SKY/WX    TMP DP  RH WIND       PRES   REMARKS
LA CROSSE      CLEAR     63  60  90 E3        30.04F
6HR MIN TEMP:  63; 6HR MAX TEMP:  72; 6HR PCP:  0.56;

SPARTA         PTCLDY    58  57  97 CALM      30.05S
VIROQUA        MOCLDY    59  59 100 W5        30.05F
BOSCOBEL       MOCLDY    62  59  90 S5        30.05F
6HR MIN TEMP:  62; 6HR MAX TEMP:  72; 6HR PCP:  0.07;

PRAIRIE DU CHI MOCLDY    65  56  74 W6        30.05F
PLATTEVILLE    MOCLDY    61  59  92 W6        30.06S
$$

WIZ056-057-062-063-064-067-068-300700-
SOUTH CENTRAL WISCONSIN

CITY           SKY/WX    TMP DP  RH WIND       PRES   REMARKS
BARABOO/DELLS  MOCLDY    58  54  87 CALM      30.03S
LONE ROCK      NOT AVBL
WATERTOWN      PTCLDY    56  56  99 CALM      30.02S
MADISON        PTCLDY    61  57  87 CALM      30.03S
6HR MIN TEMP:  59; 6HR MAX TEMP:  66; 6HR PCP: TRACE;

MIDDLETON      FAIR      59  57  94 CALM      30.04S
MONROE         MOCLDY    63  57  82 W3        30.04F
JANESVILLE     PTCLDY    61  55  82 CALM      30.03S
$$

WIZ051-052-058>065-066-070>072-300700-
SOUTHEAST WISCONSIN

CITY           SKY/WX    TMP DP  RH WIND       PRES   REMARKS
MILWAUKEE      PTCLDY    60  56  86 W5        30.00S
6HR MIN TEMP:  60; 6HR MAX TEMP:  77; 6HR PCP:  0.12;

WAUKESHA       CLEAR     54  52  94 CALM      30.02S
MILWAUKEE/TIMM CLEAR     55  54  94 W5        30.01F
RACINE         CLEAR     59  56  89 W6        30.01S
6HR MIN TEMP:  59; 6HR MAX TEMP:  70; 6HR PCP:  0.10;

BURLINGTON     CLEAR     54  54  99 SW7       30.01S
KENOSHA        CLEAR     56  55  97 W5        30.01R
6HR MIN TEMP:  55; 6HR MAX TEMP:  75; 6HR PCP:  0.15;

FOND DU LAC    PTCLDY    58  55  90 SW8       30.01S
6HR MIN TEMP:  58; 6HR MAX TEMP:  63; 6HR PCP:  0.21;

SHEBOYGAN      CLEAR     58  55  90 W7        29.99S
6HR MIN TEMP:  57; 6HR MAX TEMP:  61; 6HR PCP:  0.07;

WEST BEND      PTCLDY    55  52  88 W3        30.00F
JUNEAU         PTCLDY    55  54  95 CALM      30.03S FOG
$$

LSZ147-162-300700-
LAKE SUPERIOR

STATION/POSITION TIME  TEMP    WIND        PRES    WAVE
                       AIR SEA DIR/SP/G            HT/PER
                 (UTC) (F)     (DEG/KT/KT) (MB)    (FT/S)
W MID LAKE BUOY  0450   47 44  100/  2/  4 1017.6R   0
PORT WING        0500   56     130/  1/  3 1017.6
SAXON HARBOR     0500           CALM  /  4 1017.3
$$

LMZ867-665-643>646-300700-
LAKE MICHIGAN

STATION/POSITION TIME  TEMP    WIND        PRES    WAVE
                       AIR SEA DIR/SP/G            HT/PER
                 (UTC) (F)     (DEG/KT/KT) (MB)    (FT/S)
N MID LAKE BUOY  0450   57 54  320/  4/  4 1015.0R   0
NORTHPORT PIER   0500   62      20/  4/  6 1015.6S
SISTER BAY       0510   59        CALM       N/A
KEWAUNEE LAKESHO 0500   60     290/  3/  4 1015.7R
SHEBOYGAN LAKESH 0500   63     270/ 11/ 14 1015.4R
PORT WASHINGTON  0500   61     280/  6/  9 1015.9
ATWATER BUOY     0500   62     280/  4     1016.8S
MILWAUKEE LAKESH 0500   62     290/  6/  7   N/A
S MID LAKE BUOY  0450   61 60  270/  2/  4 1015.6F   1
KENOSHA   LAKESH 0500   62     260/  8/ 10 1015.6F
$$

TC  - TEMPERATURE IN CELSIUS
VSB - VISIBILITY IN STATUTE MILES
WCI - WIND CHILL INDEX
HX  - HEAT INDEX




USA.gov is the U.S. government's official web portal to all federal, state and local government web resources and services.